Location: Cactus School
(34.5700°N, 118.0931°W)
Time: 16:24:23
(UTC-08:00)

Tiros 1 - Pass Details

Date: 28 November 2019
Orbit: 630 x 664 km, 48.4° (Epoch: 10 December)

Event Time Altitude Azimuth Distance (km) Brightness Sun altitude
Rises 09:05:16 0° 212° (SSW) 2,928 10.8 23.1°
Reaches altitude 10° 09:07:41 10° 205° (SSW) 2,017 10.1 23.4°
Maximum altitude 09:12:02 41° 136° (SE) 923 9.8 23.9°
Drops below altitude 10° 09:16:22 10° 66° (ENE) 2,011 9.9 24.5°
Sets 09:18:47 0° 59° (ENE) 2,919 10.6 24.8°
